Waarnemingen

Advertentie
Mijn weer
Zwiesel, Duitsland (10796): temperatuur & dauwpunt: 22.05.2017 06:00:00 - 28.05.2017 06:00:00 (CEST)Zwiesel, Duitsland (10796): temperatuur 5cm & temperatuur -5cm: 22.05.2017 06:00:00 - 28.05.2017 06:00:00 (CEST)Zwiesel, Duitsland (10796): temperatuur -20cm & temperatuur -100cm: 22.05.2017 06:00:00 - 28.05.2017 06:00:00 (CEST)Zwiesel, Duitsland (10796): windsnelheid & windstoten: 22.05.2017 06:00:00 - 28.05.2017 06:00:00 (CEST)Zwiesel, Duitsland (10796): windrichting: 22.05.2017 06:00:00 - 28.05.2017 06:00:00 (CEST)Zwiesel, Duitsland (10796): luchtdruk: 22.05.2017 06:00:00 - 28.05.2017 06:00:00 (CEST)Zwiesel, Duitsland (10796): zicht: 22.05.2017 06:00:00 - 28.05.2017 06:00:00 (CEST)Zwiesel, Duitsland (10796): Zonneschijnduur: 22.05.2017 06:00:00 - 28.05.2017 06:00:00 (CEST)Zwiesel, Duitsland (10796): neerslag: 22.05.2017 06:00:00 - 28.05.2017 06:00:00 (CEST)
Datum & Tijd tt [°C] td [°C] tt 5cm [°C] tt -5cm [°C] tt -20cm [°C] tt -100cm [°C] ff [km/u] ff [kn] fx [km/u] fx [kn] dd ppp [hPa] vv [km] sd [min] rr [mm]
28.05.2017 06:00:00 7,6 6,3 5,4 14,4 17,3 11,2 3 2 6 3 Z 1024,4 25 0 0,0
28.05.2017 05:00:00 8,2 6,4 5,6 15,1 17,7 11,2 4 2 8 4 ZZO 1024,1 29 0 0,0
28.05.2017 04:00:00 9,3 7,3 5,9 16,0 18,1 11,1 2 1 9 5 O 1024,0 40 0 0,0
28.05.2017 03:00:00 10,0 7,4 7,6 16,8 18,6 11,1 5 3 12 6 O 1023,9 42 0 0,0
28.05.2017 02:00:00 10,6 7,7 7,3 17,8 18,9 11,1 4 2 11 6 N 1023,7 41 0 0,0
28.05.2017 01:00:00 14,7 8,2 12,1 18,8 19,3 11,1 10 5 16 9 NNO 1022,8 62 0 0,0
28.05.2017 00:00:00 14,4 8,2 10,7 20,0 19,7 11,1 6 4 15 8 NNO 1022,7 63 0 0,0
27.05.2017 23:00:00 14,0 8,9 10,2 21,4 19,9 11,1 5 3 9 5 NNO 1022,6 51 0 0,0
27.05.2017 22:00:00 16,1 8,0 12,1 23,0 20,0 11,1 4 2 7 4 NO 1021,5 70 0 0,0
27.05.2017 21:00:00 19,7 7,7 15,9 24,8 20,0 11,1 5 3 16 9 NO 1019,9 70 12 0,0
27.05.2017 20:00:00 21,8 7,6 20,5 26,7 19,7 11,1 10 5 17 9 O 1018,9 70 17 0,0
27.05.2017 19:00:00 24,4 8,1 28,4 27,8 19,4 11,1 8 4 19 11 O 1018,0 42 60 0,0
27.05.2017 18:00:00 24,6 9,7 30,2 28,1 18,8 11,1 6 3 14 8 NW 1017,8 47 37 0,0
27.05.2017 17:00:00 23,9 8,7 26,2 29,5 18,1 11,1 5 3 15 8 OZO 1018,2 64 45 0,0
27.05.2017 16:00:00 25,3 10,2 33,3 29,0 17,3 11,1 8 4 21 11 OZO 1018,0 34 60 0,0
27.05.2017 15:00:00 24,6 9,3 33,9 27,8 16,5 11,1 8 5 21 11 Z 1018,7 34 60 0,0
27.05.2017 14:00:00 24,0 9,2 33,4 25,8 15,8 11,1 9 5 18 10 ZO 1019,1 42 40 0,0
27.05.2017 13:00:00 22,8 8,4 31,3 24,7 15,2 11,1 5 3 14 8 N 1019,6 40 58 0,0
27.05.2017 12:00:00 22,3 8,0 29,2 22,2 14,7 11,1 8 5 16 9 ZW 1019,9 43 59 0,0
27.05.2017 11:00:00 21,3 7,4 27,8 19,6 14,4 11,1 6 3 12 6 ZZW 1020,3 70 60 0,0
27.05.2017 10:00:00 19,6 7,2 24,7 17,0 14,3 11,1 6 3 12 6 ZW 1020,9 45 60 0,0
27.05.2017 09:00:00 18,6 9,5 21,7 14,6 14,4 11,1 3 2 7 4 NW 1021,2 42 60 0,0
27.05.2017 08:00:00 15,3 9,0 17,6 12,8 14,7 11,1 0 0 4 2 N 1021,8 34 60 0,0
27.05.2017 07:00:00 10,3 7,2 10,2 12,1 15,0 11,1 0 0 6 3 N 1023,0 23 40 0,0
27.05.2017 06:00:00 7,7 7,0 5,3 12,5 15,3 11,1 3 2 5 3 O 1023,4 13 0 0,0
27.05.2017 05:00:00 7,8 7,1 4,8 13,1 15,7 11,1 0 0 7 4 N 1023,5 14 0 0,0
27.05.2017 04:00:00 8,1 7,2 5,3 13,8 16,0 11,1 3 2 5 3 ONO 1023,3 13 0 0,0
27.05.2017 03:00:00 8,5 7,1 6,1 14,5 16,4 11,1 2 1 9 5 ZO 1023,1 18 0 0,0
27.05.2017 02:00:00 9,3 7,4 6,0 15,4 16,7 11,1 2 1 8 4 WNW 1022,8 21 0 0,0
27.05.2017 01:00:00 11,4 8,5 7,8 16,3 17,0 11,1 4 2 7 4 Z 1022,5 35 0 0,0
27.05.2017 00:00:00 11,7 8,5 8,3 17,4 17,3 11,0 3 2 10 5 W 1022,3 35 0 0,0
26.05.2017 23:00:00 13,4 8,6 10,1 18,5 17,4 11,0 3 1 11 6 Z 1021,2 41 0 0,0
26.05.2017 22:00:00 15,5 8,8 12,5 19,8 17,5 11,0 9 5 13 7 NO 1020,3 50 0 0,0
26.05.2017 21:00:00 17,0 8,2 13,4 21,3 17,4 11,0 4 2 12 7 NO 1019,1 60 29 0,0
26.05.2017 20:00:00 19,3 8,0 19,4 22,6 17,2 11,0 8 4 15 8 NNO 1018,5 62 60 0,0
26.05.2017 19:00:00 20,5 7,6 23,5 23,4 16,9 11,0 9 5 25 14 N 1018,2 62 43 0,0
26.05.2017 18:00:00 20,5 6,7 22,9 24,1 16,5 11,0 13 7 26 14 NNO 1018,2 45 59 0,0
26.05.2017 17:00:00 21,4 7,9 26,3 23,9 16,0 11,0 13 7 27 14 NNO 1018,1 69 30 0,0
26.05.2017 16:00:00 21,4 7,0 23,9 24,5 15,3 11,0 10 6 23 13 WZW 1018,1 67 28 0,0
26.05.2017 15:00:00 21,0 7,3 28,2 24,6 14,5 11,0 9 5 23 12 WZW 1018,5 63 39 0,0
26.05.2017 14:00:00 20,9 7,2 27,7 23,3 13,8 11,0 14 7 24 13 WZW 1018,8 36 59 0,0
26.05.2017 13:00:00 20,2 7,5 27,0 21,4 13,2 11,0 10 5 22 12 W 1019,4 69 59 0,0
26.05.2017 12:00:00 18,6 4,1 23,7 19,1 12,7 11,0 7 4 21 11 NO 1020,1 57 60 0,0
26.05.2017 11:00:00 17,1 4,7 22,6 16,5 12,5 11,0 9 5 19 10 NW 1020,9 43 59 0,0
26.05.2017 10:00:00 15,6 6,1 18,2 14,2 12,4 11,0 6 3 16 9 O 1021,5 63 60 0,0
26.05.2017 09:00:00 14,7 6,3 18,1 11,9 12,5 11,0 7 4 14 7 NNO 1021,6 43 60 0,0
26.05.2017 08:00:00 10,5 6,2 13,4 10,1 12,7 11,0 3 2 6 3 W 1022,7 34 60 0,0
26.05.2017 07:00:00 7,2 5,2 7,3 9,4 13,0 11,0 2 1 4 2 O 1023,4 19 38 0,0
26.05.2017 06:00:00 4,9 4,5 2,8 9,7 13,3 11,0 4 2 9 5 N 1024,2 14 0 0,0
26.05.2017 05:00:00 4,6 4,0 2,7 10,2 13,6 11,0 5 3 8 4 ZO 1024,2 17 0 0,0
26.05.2017 04:00:00 5,1 4,5 2,7 10,7 13,9 11,0 3 1 5 3 OZO 1023,8 20 0 0,0
26.05.2017 03:00:00 5,6 4,9 2,8 11,3 14,2 10,9 3 1 6 4 O 1023,9 24 0 0,0
26.05.2017 02:00:00 6,3 5,3 3,4 12,0 14,5 10,9 3 2 6 3 ZO 1023,7 25 0 0,0
26.05.2017 01:00:00 7,2 5,9 4,3 12,8 14,7 10,9 2 1 8 4 NNO 1023,6 33 0 0,0
26.05.2017 00:00:00 7,9 6,2 4,8 13,7 14,9 10,9 0 0 4 2 N 1023,3 46 0 0,0
25.05.2017 23:00:00 8,9 6,4 5,9 14,6 15,1 10,9 3 2 6 3 N 1023,0 52 0 0,0
25.05.2017 22:00:00 10,7 6,7 7,2 15,7 15,1 10,9 4 2 6 3 NNO 1022,2 53 0 0,0
25.05.2017 21:00:00 11,9 6,7 8,8 16,8 15,1 10,9 3 2 12 7 NW 1021,4 63 0 0,0
25.05.2017 20:00:00 15,4 6,0 14,7 17,8 15,0 10,9 7 4 19 10 WNW 1020,3 70 12 0,0
25.05.2017 19:00:00 16,3 5,6 18,7 18,2 14,8 10,9 14 7 24 13 WZW 1020,0 38 49 0,0
25.05.2017 18:00:00 15,9 4,6 17,4 18,1 14,6 10,9 5 3 17 9 N 1020,4 70 16 0,0
25.05.2017 17:00:00 15,4 5,2 17,3 18,0 14,3 10,9 9 5 19 10 WZW 1021,1 70 3 0,0
25.05.2017 16:00:00 16,5 7,0 22,2 17,6 14,1 10,9 8 4 24 13 NW 1020,8 70 12 0,0
25.05.2017 15:00:00 14,5 4,9 16,8 17,4 13,9 10,9 10 5 18 10 W 1021,9 70 9 0,0
25.05.2017 14:00:00 13,5 4,5 15,9 16,7 13,7 10,9 11 6 18 10 NNW 1022,2 70 1 0,0
25.05.2017 13:00:00 13,6 4,2 16,5 16,5 13,4 10,8 11 6 18 10 NW 1022,5 70 1 0,0
25.05.2017 12:00:00 13,3 6,1 18,0 15,8 13,2 10,8 10 5 17 9 WZW 1022,5 60 3 0,0
25.05.2017 11:00:00 12,6 6,3 17,2 14,7 13,1 10,8 8 5 18 10 W 1022,9 60 7 0,0
25.05.2017 10:00:00 11,4 6,5 14,4 13,6 13,1 10,8 8 4 14 7 WZW 1023,3 46 8 0,0
25.05.2017 09:00:00 10,5 5,1 12,9 12,2 13,2 10,8 3 2 9 5 ZZW 1023,5 43 35 0,0
25.05.2017 08:00:00 9,1 4,8 10,4 10,4 13,5 10,8 3 1 5 3 ONO 1023,8 32 60 0,0
25.05.2017 07:00:00 5,8 3,8 5,9 9,8 13,9 10,8 0 0 4 2 N 1024,8 13 38 0,0
25.05.2017 06:00:00 3,9 3,3 1,7 10,2 14,2 10,8 3 2 6 3 ZO 1025,0 10 0 0,0
25.05.2017 05:00:00 4,9 4,3 2,8 10,7 14,5 10,8 3 2 8 5 ONO 1024,3 18 0 0,0
25.05.2017 04:00:00 5,0 4,2 2,9 11,4 14,9 10,8 5 3 8 5 N 1024,2 6 0 0,0
25.05.2017 03:00:00 6,1 4,9 3,2 12,2 15,2 10,8 4 2 9 5 NNO 1023,7 32 0 0,0
25.05.2017 02:00:00 8,5 5,7 6,1 13,0 15,5 10,7 5 3 23 12 NW 1022,9 45 0 0,0
25.05.2017 01:00:00 8,5 5,8 6,4 13,9 15,8 10,7 11 6 19 11 NNO 1022,9 57 0 0,0
25.05.2017 00:00:00 9,7 6,3 8,2 14,7 16,0 10,7 10 5 21 11 NNW 1022,5 70 0 0,0
24.05.2017 23:00:00 9,9 6,1 8,6 15,5 16,2 10,7 13 7 26 14 NNO 1022,5 57 0 0,6
24.05.2017 22:00:00 11,3 8,2 10,5 16,1 16,4 10,7 5 3 9 5 WNW 1021,6 65 0 0,0
24.05.2017 21:00:00 11,3 9,2 10,9 16,7 16,6 10,7 2 1 13 7 WZW 1021,1 45 0 0,0
24.05.2017 20:00:00 11,8 8,6 10,8 17,5 16,7 10,7 9 5 32 17 NNW 1020,9 63 0 0,5
24.05.2017 19:00:00 14,2 6,6 12,2 18,3 16,7 10,7 13 7 29 15 W 1019,5 60 0 0,0
24.05.2017 18:00:00 14,3 5,5 14,7 19,0 16,7 10,7 19 10 37 20 WNW 1020,1 68 0 0,0
24.05.2017 17:00:00 14,6 4,5 14,8 20,2 16,5 10,7 22 12 39 21 WNW 1019,9 70 0 0,0
24.05.2017 16:00:00 15,5 4,8 17,9 21,2 16,1 10,7 19 10 39 21 WNW 1019,8 59 0 0,0
24.05.2017 15:00:00 16,3 4,4 18,7 22,1 15,8 10,7 21 11 44 24 W 1019,5 40 42 0,0
24.05.2017 14:00:00 16,2 4,2 22,4 20,8 15,4 10,7 31 17 42 23 NW 1019,6 22 50 0,0
24.05.2017 13:00:00 15,7 5,3 20,9 19,2 15,3 10,6 23 13 39 21 W 1020,0 32 58 0,0
24.05.2017 12:00:00 14,9 4,8 19,7 17,4 15,2 10,6 23 13 39 21 W 1020,4 28 43 0,0
24.05.2017 11:00:00 14,0 5,4 16,7 16,3 15,2 10,6 11 6 29 16 WNW 1020,5 60 0 0,0
24.05.2017 10:00:00 13,5 7,0 15,4 15,7 15,3 10,6 17 9 29 16 NNW 1020,1 51 12 0,0
24.05.2017 09:00:00 13,0 7,4 14,4 15,1 15,5 10,6 18 10 31 17 N 1020,0 34 1 0,0
24.05.2017 08:00:00 14,3 9,7 14,4 15,0 15,6 10,6 10 6 19 10 NW 1019,1 24 0 0,0
24.05.2017 07:00:00 13,0 10,2 12,9 14,9 15,8 10,6 4 2 8 4 W 1018,7 17 0 0,0
24.05.2017 06:00:00 12,6 10,2 12,2 15,1 16,1 10,6 6 3 9 5 NNW 1018,5 19 0 0,0
24.05.2017 05:00:00 12,0 10,1 10,2 15,5 16,3 10,6 3 2 5 3 ZW 1018,3 19 0 0,0
24.05.2017 04:00:00 12,1 9,9 12,0 15,8 16,5 10,6 0 0 5 3 N 1018,4 21 0 0,0
24.05.2017 03:00:00 11,7 9,2 11,4 16,1 16,8 10,6 2 1 5 3 N 1018,5 21 0 0,0
24.05.2017 02:00:00 12,6 8,7 11,3 16,5 17,1 10,6 0 0 7 4 N 1018,4 31 0 0,0
24.05.2017 01:00:00 12,8 8,6 11,4 17,1 17,3 10,6 2 1 6 3 OZO 1018,6 34 0 0,0
24.05.2017 00:00:00 13,3 8,7 11,7 17,7 17,6 10,6 3 1 4 2 ZO 1018,8 37 0 0,0
23.05.2017 23:00:00 14,1 8,7 11,5 18,6 17,8 10,6 2 1 6 3 NW 1018,6 36 0 0,0
23.05.2017 22:00:00 15,6 8,5 12,9 19,6 17,9 10,5 2 1 5 3 ZO 1017,9 44 0 0,0
23.05.2017 21:00:00 16,9 8,2 13,7 20,8 17,9 10,5 3 2 13 7 WNW 1017,0 42 0 0,0
23.05.2017 20:00:00 20,1 6,8 18,9 21,9 17,9 10,5 9 5 27 15 WNW 1015,9 53 0 0,0
23.05.2017 19:00:00 20,9 6,0 21,2 22,9 17,7 10,5 15 8 30 16 WNW 1015,7 45 23 0,0
23.05.2017 18:00:00 21,1 6,3 22,4 23,7 17,4 10,5 15 8 38 20 WNW 1015,9 42 39 0,0
23.05.2017 17:00:00 21,4 7,1 23,5 24,4 16,9 10,5 15 8 31 17 W 1015,6 41 38 0,0
23.05.2017 16:00:00 20,8 7,0 22,8 24,8 16,4 10,5 16 9 33 18 NW 1015,6 44 44 0,0
23.05.2017 15:00:00 20,8 8,0 24,2 24,7 15,8 10,5 16 8 32 17 W 1015,8 51 45 0,0
23.05.2017 14:00:00 21,2 6,1 28,0 23,5 15,3 10,5 18 10 29 16 W 1015,9 40 56 0,0
23.05.2017 13:00:00 21,0 7,1 25,6 22,0 14,9 10,5 18 10 35 19 W 1015,9 29 56 0,0
23.05.2017 12:00:00 21,0 7,6 26,1 19,6 14,6 10,5 16 8 27 15 W 1015,8 29 41 0,0
23.05.2017 11:00:00 19,9 7,8 23,9 18,3 14,3 10,5 6 3 23 12 N 1016,2 45 36 0,0
23.05.2017 10:00:00 18,7 8,5 21,8 17,1 14,3 10,5 10 5 21 11 ZW 1016,6 47 53 0,0
23.05.2017 09:00:00 17,3 9,8 20,4 15,2 14,3 10,5 4 2 8 4 ZW 1016,9 40 59 0,0
23.05.2017 08:00:00 13,7 8,6 17,2 13,8 14,5 10,5 3 1 4 2 WNW 1017,6 34 44 0,0
23.05.2017 07:00:00 11,0 9,0 10,3 13,7 14,6 10,5 0 0 4 2 N 1018,1 24 0 0,0
23.05.2017 06:00:00 10,8 8,9 10,7 13,8 14,8 10,4 3 2 4 2 ZW 1017,9 28 0 0,0
23.05.2017 05:00:00 10,5 8,8 10,2 14,0 15,0 10,4 2 1 4 2 NNO 1017,8 28 0 0,0
23.05.2017 04:00:00 10,7 8,6 10,3 14,2 15,3 10,4 2 1 4 2 N 1017,7 32 0 0,0
23.05.2017 03:00:00 10,9 8,7 10,2 14,4 15,5 10,4 0 0 8 4 N 1017,8 30 0 0,0
23.05.2017 02:00:00 10,8 8,6 9,3 14,8 15,8 10,4 3 2 10 6 NNO 1018,0 34 0 0,0
23.05.2017 01:00:00 11,2 8,7 10,4 15,1 16,1 10,4 2 1 6 4 ZZO 1018,2 34 0 0,0
23.05.2017 00:00:00 11,6 8,4 7,7 16,0 16,3 10,4 3 1 11 6 O 1018,0 40 0 0,0
22.05.2017 23:00:00 14,0 8,9 10,6 17,0 16,5 10,4 7 4 14 8 NO 1017,3 45 0 0,0
22.05.2017 22:00:00 14,9 9,0 11,0 18,1 16,6 10,4 3 2 14 8 N 1017,1 51 0 0,0
22.05.2017 21:00:00 16,0 9,5 13,9 19,2 16,6 10,4 6 3 11 6 N 1016,2 51 0 0,0
22.05.2017 20:00:00 17,2 9,8 15,3 20,4 16,5 10,4 5 3 11 6 NNW 1015,9 53 0 0,0
22.05.2017 19:00:00 18,7 9,0 18,0 21,6 16,2 10,4 5 3 18 10 NO 1015,5 66 9 0,0
22.05.2017 18:00:00 19,8 9,1 21,2 22,7 15,8 10,4 5 3 21 11 ONO 1015,3 68 39 0,0
22.05.2017 17:00:00 20,5 8,8 24,9 22,8 15,3 10,4 8 4 23 12 NO 1015,7 52 53 0,0
22.05.2017 16:00:00 20,8 8,6 29,0 21,9 14,9 10,4 4 2 16 8 O 1016,1 56 42 0,0
22.05.2017 15:00:00 19,9 7,4 22,8 21,4 14,4 10,3 5 3 16 8 W 1016,9 68 4 0,0
22.05.2017 14:00:00 19,5 6,5 23,9 20,9 13,9 10,3 7 4 14 7 WZW 1017,4 65 34 0,0
22.05.2017 13:00:00 20,5 7,2 28,1 19,1 13,4 10,3 8 4 23 12 Z 1017,4 45 42 0,0
22.05.2017 12:00:00 18,5 5,9 21,7 18,0 13,1 10,3 8 4 18 10 W 1018,3 70 36 0,0
22.05.2017 11:00:00 18,2 7,3 22,7 16,1 12,9 10,3 7 4 16 9 NNO 1018,5 66 57 0,0
22.05.2017 10:00:00 17,3 6,2 21,0 14,3 12,8 10,3 7 4 21 12 O 1019,0 57 59 0,0
22.05.2017 09:00:00 15,6 5,7 17,9 12,8 12,9 10,3 6 3 16 9 ONO 1019,6 68 44 0,0
22.05.2017 08:00:00 14,3 5,5 16,7 11,2 13,1 10,3 5 3 11 6 N 1020,3 47 60 0,0
22.05.2017 07:00:00 11,5 5,3 11,2 10,4 13,4 10,3 4 2 9 5 ONO 1021,3 45 38 0,0
22.05.2017 06:00:00 9,0 4,9 5,7 10,6 13,7 10,3 3 2 11 6 ONO 1022,0 40 0 0,0

tt = temperatuur
td = dauwpunt
tt 5cm = temperatuur 5cm
tt -5cm = temperatuur -5cm
tt -20cm = temperatuur -20cm
tt -100cm = temperatuur -100cm
ff = windsnelheid
fx = windstoten
dd = windrichting
ppp = luchtdruk
vv = zicht
sd = Zonneschijnduur
rr = neerslag

Weerstations in de omgeving